(198352) = 2004 VZ6

Discovered at Kitt Peak on 2004-11-03 by Spacewatch.

Orbit

Orbit type: Main Belt

Note: WebGL enabled browser required.

epoch2023-02-25.0
epoch JD2460000.5
perihelion date2020-08-31.68246
perihelion JD2459093.18246
argument of perihelion (°)233.14556
ascending node (°)76.56408
inclination (°)8.43493
eccentricity0.1592832
perihelion distance (AU)2.1878387
Tisserand w.r.t. Jupiter3.4
ΔV w.r.t. Earth (km/sec)9.6
semimajor axis (AU)2.6023491
mean anomaly (°)213.01728
mean daily motion (°/day)0.23477700
aphelion distance (AU)3.017
period (years)4.2
P-vector [x]0.63047889
P-vector [y]-0.65727836
P-vector [z]-0.41289410
Q-vector [x]0.76298182
Q-vector [y]0.62255631
Q-vector [z]0.17401832
absolute magnitude16.43
phase slope0.15
uncertainty0
referenceMPEC 2023-F189
observations used353
oppositions14
arc length (days)8151
first opposition used2000
last opposition used2023
residual rms (arc-secs)0.84
perturbers coarse indicatorM-v
perturbers precise indicator003Ek
first observation date used2000-11-30.0
last observation date used2023-03-26.0
computer nameMPCLINUX
JD of orbit computation2456670.948683
perihelion JD uncertainty (days)2.2147E-04
argument of perihelion uncertainty (°)8.5680E-05
ascending node uncertainty (°)6.9591E-05
inclination uncertainty (°)1.3406E-05
eccentricity uncertainty 5.0968E-08
perihelion distance uncertainty (AU)1.4538E-07
Minimum Orbit Intersection Distances (in AU)
for orbit epoch: 2460000.5, reference: E2023-FI9
Mercury1.75066
Venus1.4623
Earth1.18408
Mars0.79106
Jupiter2.23549
Saturn6.12152
Uranus15.5145
Neptune27.1892

Observations

359 total observations over interval: 2000 11 30.43784 – 2023 03 26.292167
These data are available for download (format description).

Date (UT) J2000 RA J2000 Dec Magn Location Ref
2000 11 30.43784 04 50 38.65 +21 22 31.5 20.2 V 691 – Steward Observatory, Kitt Peak-Spacewatch MPS 208936
2000 11 30.46000 04 50 37.22 +21 22 32.6 20.4 V 691 – Steward Observatory, Kitt Peak-Spacewatch MPS 208936
2000 11 30.48255 04 50 35.75 +21 22 34.0 20.2 V 691 – Steward Observatory, Kitt Peak-Spacewatch MPS 208936
2004 11 03.30200 03 43 40.31 +13 43 52.4 20.0 V 691 – Steward Observatory, Kitt Peak-Spacewatch MPS 118753
2004 11 03.32959 03 43 38.67 +13 43 50.9 20.0 V 691 – Steward Observatory, Kitt Peak-Spacewatch MPS 118753
2004 11 03.35751 03 43 37.03 +13 43 49.5 20.0 V 691 – Steward Observatory, Kitt Peak-Spacewatch MPS 118753
2004 11 04.39126 03 42 37.11 +13 42 56.2 19.2 R 703 – Catalina Sky Survey MPS 118753
2004 11 04.40253 03 42 36.48 +13 42 56.3 19.0 R 703 – Catalina Sky Survey MPS 118753
2004 11 04.41382 03 42 35.69 +13 42 55.5 19.2 R 703 – Catalina Sky Survey MPS 118753
2004 11 04.42508 03 42 34.98 +13 42 53.0 19.2 R 703 – Catalina Sky Survey MPS 118753
2004 11 10.23194 03 36 46.47 +13 38 10.2 20.1 V 691 – Steward Observatory, Kitt Peak-Spacewatch MPS 120619
2004 11 10.26418 03 36 44.43 +13 38 08.6 20.0 V 691 – Steward Observatory, Kitt Peak-Spacewatch MPS 120619
2004 11 10.29014 03 36 42.80 +13 38 07.6 19.8 V 691 – Steward Observatory, Kitt Peak-Spacewatch MPS 120619
2004 11 17.57198 03 29 11.10 +13 33 27.3 19.7 R E12 – Siding Spring Survey MPS 120619
2004 11 17.58037 03 29 10.58 +13 33 27.0 19.2 R E12 – Siding Spring Survey MPS 120619
2004 11 17.58876 03 29 10.02 +13 33 26.4 19.1 R E12 – Siding Spring Survey MPS 120619
2004 11 17.59715 03 29 09.52 +13 33 26.6 19.7 R E12 – Siding Spring Survey MPS 120619
2004 11 19.28400 03 27 25.56 +13 32 32.7 19.0 R 703 – Catalina Sky Survey MPS 120619
2004 11 19.29221 03 27 24.95 +13 32 32.8 19.6 R 703 – Catalina Sky Survey MPS 120619
2004 11 19.30050 03 27 24.53 +13 32 32.8 19.3 R 703 – Catalina Sky Survey MPS 120619
2004 11 19.30880 03 27 23.95 +13 32 31.2 19.4 R 703 – Catalina Sky Survey MPS 120619
2007 04 24.37800 15 40 15.84 -12 30 20.2 20.7 V 691 – Steward Observatory, Kitt Peak-Spacewatch MPS 208936
2007 04 24.39569 15 40 14.97 -12 30 19.6 20.1 V 691 – Steward Observatory, Kitt Peak-Spacewatch MPS 208936
2007 04 24.41338 15 40 14.15 -12 30 18.7 20.1 V 691 – Steward Observatory, Kitt Peak-Spacewatch MPS 208936
2007 04 28.38323 15 37 10.05 -12 27 05.1 20.0 V 691 – Steward Observatory, Kitt Peak-Spacewatch MPS 208936
2007 04 28.40089 15 37 09.15 -12 27 04.0 19.9 V 691 – Steward Observatory, Kitt Peak-Spacewatch MPS 208936
2007 04 28.41854 15 37 08.26 -12 27 03.6 20.0 V 691 – Steward Observatory, Kitt Peak-Spacewatch MPS 208936
2007 04 28.42604 15 37 07.87 -12 27 03.2 20.3 V 691 – Steward Observatory, Kitt Peak-Spacewatch MPS 208936
2007 04 28.44363 15 37 06.98 -12 27 02.6 20.1 V 691 – Steward Observatory, Kitt Peak-Spacewatch MPS 208936
2007 04 28.46122 15 37 06.12 -12 27 02.6 19.8 V 691 – Steward Observatory, Kitt Peak-Spacewatch MPS 208936
2007 05 12.33048 15 24 21.38 -12 18 04.3 19.1 V G96 – Mt. Lemmon Survey MPS 208936
2007 05 12.33782 15 24 20.95 -12 18 03.9 19.0 V G96 – Mt. Lemmon Survey MPS 208936
2007 05 12.34512 15 24 20.48 -12 18 03.9 19.2 V G96 – Mt. Lemmon Survey MPS 208936
2007 05 12.35241 15 24 20.05 -12 18 03.6 19.1 V G96 – Mt. Lemmon Survey MPS 208936
2007 05 13.30024 15 23 23.78 -12 17 42.7 19.1   704 – Lincoln Laboratory ETS, New Mexico MPS 208936
2007 05 13.30970 15 23 23.11 -12 17 42.7 19.2   704 – Lincoln Laboratory ETS, New Mexico MPS 208936
2007 05 13.31905 15 23 22.60 -12 17 40.8 19.5   704 – Lincoln Laboratory ETS, New Mexico MPS 208936
2007 05 13.32837 15 23 22.09 -12 17 42.4 19.4   704 – Lincoln Laboratory ETS, New Mexico MPS 208936
2007 05 13.33774 15 23 21.42 -12 17 40.9 19.3   704 – Lincoln Laboratory ETS, New Mexico MPS 208936
2007 05 17.36675 15 19 20.18 -12 16 43.5   291 – LPL/Spacewatch II MPS 208937
2007 05 17.37552 15 19 19.64 -12 16 43.4   291 – LPL/Spacewatch II MPS 208937
2007 05 17.38420 15 19 19.11 -12 16 43.4   291 – LPL/Spacewatch II MPS 208937
2007 06 08.27531 14 59 57.33 -12 34 20.3 20.8 V 703 – Catalina Sky Survey MPS 210582
2007 06 08.28177 14 59 57.08 -12 34 21.1 19.8 V 703 – Catalina Sky Survey MPS 210582
2007 06 08.28822 14 59 56.76 -12 34 20.4 19.8 V 703 – Catalina Sky Survey MPS 210582
2007 06 08.29463 14 59 56.58 -12 34 22.4 19.5 V 703 – Catalina Sky Survey MPS 210582
2008 09 24.37380 02 34 44.43 +03 57 15.8 20.2 V G96 – Mt. Lemmon Survey MPS 256690
2008 09 24.38139 02 34 44.18 +03 57 15.0 19.7 V G96 – Mt. Lemmon Survey MPS 256690
2008 09 24.38900 02 34 43.93 +03 57 12.7 19.9 V G96 – Mt. Lemmon Survey MPS 256690
2008 09 24.39669 02 34 43.71 +03 57 11.4 20.0 V G96 – Mt. Lemmon Survey MPS 256690
2008 09 29.35532 02 31 57.54 +03 41 56.2 20.0 V 703 – Catalina Sky Survey MPS 257927
2008 09 29.36627 02 31 57.03 +03 41 53.7 19.8 V 703 – Catalina Sky Survey MPS 257927
2008 09 29.37711 02 31 56.60 +03 41 52.4 19.7 V 703 – Catalina Sky Survey MPS 257927
2008 09 29.38797 02 31 56.24 +03 41 49.7 19.5 V 703 – Catalina Sky Survey MPS 257927
2008 10 08.38947 02 25 21.86 +03 12 54.7 19.7 V 703 – Catalina Sky Survey MPS 259251
2008 10 08.39590 02 25 21.46 +03 12 54.4 20.2 V 703 – Catalina Sky Survey MPS 259251
2008 10 08.40256 02 25 21.03 +03 12 53.4 20.0 V 703 – Catalina Sky Survey MPS 259251
2008 10 08.40927 02 25 20.78 +03 12 51.3 19.6 V 703 – Catalina Sky Survey MPS 259251
2008 10 24.26047 02 10 41.31 +02 28 52.4 19.6   704 – Lincoln Laboratory ETS, New Mexico MPS 261519
2008 10 24.27195 02 10 40.55 +02 28 51.2 19.1   704 – Lincoln Laboratory ETS, New Mexico MPS 261519
2008 10 24.28356 02 10 39.97 +02 28 49.2 20.0   704 – Lincoln Laboratory ETS, New Mexico MPS 261519
2008 10 24.29507 02 10 39.21 +02 28 47.8 19.4   704 – Lincoln Laboratory ETS, New Mexico MPS 261519
2008 10 29.20261 02 05 52.34 +02 19 37.3 18.9   704 – Lincoln Laboratory ETS, New Mexico MPS 261519
2008 10 29.21417 02 05 51.64 +02 19 37.0 19.3   704 – Lincoln Laboratory ETS, New Mexico MPS 261519
2008 10 29.22577 02 05 51.03 +02 19 35.2 19.3   704 – Lincoln Laboratory ETS, New Mexico MPS 261519
2008 10 29.23735 02 05 50.24 +02 19 34.0 19.7   704 – Lincoln Laboratory ETS, New Mexico MPS 261519
2008 10 29.24893 02 05 49.53 +02 19 33.0 19.7   704 – Lincoln Laboratory ETS, New Mexico MPS 261519
2008 10 29.29125 02 05 47.04 +02 19 29.6 19.4 V 703 – Catalina Sky Survey MPS 261519
2008 10 29.29797 02 05 46.64 +02 19 28.5 19.2 V 703 – Catalina Sky Survey MPS 261519
2008 10 29.30468 02 05 46.21 +02 19 27.8 18.9 V 703 – Catalina Sky Survey MPS 261519
2008 10 29.31123 02 05 45.70 +02 19 26.5 18.9 V 703 – Catalina Sky Survey MPS 261519
2008 11 18.27962 01 49 04.95 +02 17 54.6 19.8   704 – Lincoln Laboratory ETS, New Mexico MPS 266333
2008 11 18.29196 01 49 04.49 +02 17 55.2 20.1   704 – Lincoln Laboratory ETS, New Mexico MPS 266333
2008 11 18.30430 01 49 03.97 +02 17 55.7 19.3   704 – Lincoln Laboratory ETS, New Mexico MPS 266333
2008 11 19.18224 01 48 30.81 +02 19 21.0 20.6 V 703 – Catalina Sky Survey MPS 266333
2008 11 19.19039 01 48 30.42 +02 19 22.1 20.6 V 703 – Catalina Sky Survey MPS 266333
2008 11 19.19866 01 48 30.13 +02 19 20.4 20.2 V 703 – Catalina Sky Survey MPS 266333
2008 11 19.20688 01 48 29.73 +02 19 22.0 19.6 V 703 – Catalina Sky Survey MPS 266333
2009 01 03.06903 01 46 36.48 +05 51 10.1 20.8 V G96 – Mt. Lemmon Survey MPS 272147
2009 01 03.07762 01 46 36.69 +05 51 13.7 20.8 V G96 – Mt. Lemmon Survey MPS 272147
2009 01 03.08637 01 46 36.98 +05 51 17.7 20.8 V G96 – Mt. Lemmon Survey MPS 272147
2009 01 03.09476 01 46 37.23 +05 51 21.0 20.8 V G96 – Mt. Lemmon Survey MPS 272147
2011 03 27.29670 14 17 45.13 -02 42 32.1 20.2 V 691 – Steward Observatory, Kitt Peak-Spacewatch MPS 376924
2011 03 27.31443 14 17 44.52 -02 42 28.1 20.0 V 691 – Steward Observatory, Kitt Peak-Spacewatch MPS 376924
2011 03 27.33217 14 17 43.81 -02 42 24.3 20.4 V 691 – Steward Observatory, Kitt Peak-Spacewatch MPS 376924
2011 03 27.41490 14 17 40.74 -02 42 05.2 20.1 V G96 – Mt. Lemmon Survey MPS 376924
2011 03 27.42290 14 17 40.45 -02 42 03.4 20.2 V G96 – Mt. Lemmon Survey MPS 376924
2011 03 27.43098 14 17 40.12 -02 42 01.2 20.1 V G96 – Mt. Lemmon Survey MPS 376924
